Location: Unspecified
(0.0000°N, 1.0000°E)
Time: 15:58:19
(UTC+02:00)

Daily predictions for brighter satellites

Satellite Brightness Start Highest point End
(mag) Time Altitude Azimuth Time Altitude Azimuth Time Altitude Azimuth
Ariane 44P Rocket 4.5 19:10:50 10° WSW 19:15:12 68° S 19:44:57 10° E
H-2A R/B 0.5 20:18:26 10° WSW 20:21:54 80° NNW 20:23:52 10° ENE
CSL-04 Rocket 4.1 20:18:29 10° S 20:23:58 68° WSW 20:29:21 10° NNW
GENESIS II 4.1 20:24:45 10° SSW 20:28:36 82° ESE 20:32:25 10° NNE
Cosmos 2333 Rocket 4.4 20:27:58 10° NW 20:32:41 26° WSW 20:37:25 10° SSW
Cosmos 1378 4.2 20:30:02 10° SSE 20:33:09 25° E 20:36:13 10° NE
Delta 2 Rocket 4.2 20:31:38 10° SSW 20:34:32 22° SE 20:37:12 10° E
FENGYUN 3A 4.1 20:31:03 10° S 20:36:22 68° WSW 20:41:42 10° NNW
Cosmos 1092 Rocket 4.3 20:31:31 10° NNE 20:37:16 42° E 20:43:01 10° SSE
Ariane H10 4.0 20:35:41 10° WNW 20:39:25 42° NNE 20:51:58 10° E
ATLAS V CENTAUR R/B 3.0 20:38:19 10° SSW 20:39:46 19° SSE 20:40:42 15° ESE
Cosmos 1544 2.9 20:37:09 10° N 20:40:43 77° E 20:44:19 10° S
Cosmos 158 Rocket 4.0 20:37:31 10° S 20:42:54 79° ESE 20:48:14 10° NNE
Cosmos 1707 3.8 20:43:49 10° SSE 20:47:00 24° E 20:50:09 10° NE
ARIANE 5 DEB (SYLDA) 3.4 20:43:19 10° W 20:48:10 79° S 20:59:51 11° E
CZ-4 R/B 3.6 20:50:36 10° SSW 20:53:53 24° WSW 20:57:08 10° NW
Ariane Rocket 4.4 20:50:46 10° S 20:55:29 39° WSW 21:00:12 10° NW
Cosmos 2285 Rocket 4.5 20:50:54 10° SSE 20:56:41 37° ESE 21:02:25 10° NE
Cosmos 972 4.4 20:51:40 10° S 20:57:11 74° E 21:02:11 10° NNE
Cosmos 2228 3.6 20:53:28 10° NNE 20:57:31 37° E 21:00:14 18° SE
FengYun 1-2 T 4.4 20:52:17 10° SSE 20:57:43 52° ENE 21:03:04 10° N
Cosmos 1844 Rocket 3.2 20:53:23 10° S 20:58:28 34° ESE 21:03:32 10° NE
Ariane H10+ 1.7 20:51:11 10° WSW 20:59:11 63° S 21:00:58 25° ESE
GOES 2 Rocket 3.4 20:56:57 10° NW 21:01:04 46° NNE 21:03:17 23° E
SPOT 3 Rocket 3.7 20:57:33 12° SSE 21:02:16 53° ENE 21:07:18 10° N
Cosmos 1844 4.5 20:59:12 10° SSE 21:03:54 27° ESE 21:08:36 10° NE
Cosmos 468 4.5 20:58:57 10° S 21:04:15 87° E 21:09:34 10° NNE
Cosmos 2058 Rocket 3.4 21:01:25 10° NNE 21:05:29 40° E 21:07:31 25° SE
FREGAT/IRIS 2.9 21:07:59 40° E 21:08:07 40° E 21:10:54 10° N
Delta 2 Rocket 4.4 21:04:26 10° WNW 21:10:12 49° SSW 21:13:56 23° SE
Cosmos 1726 Rocket 3.5 21:07:33 10° N 21:11:58 87° E 21:15:53 13° S
GPS 2-14 Rocket1 3.5 21:09:31 10° W 21:13:12 46° NNW 21:15:57 16° NE
ATLAS 2AS CENTAUR R/B 3.1 21:06:28 10° SSW 21:13:28 74° WNW 21:21:10 10° NNE
deb Ariane 3.5 21:08:15 10° W 21:14:33 64° SSW 21:15:29 41° SE
Aureole 1 Rocket 2.7 21:16:01 10° SSW 21:19:03 55° WNW 21:21:57 10° N
Timation 1 Rocket 4.3 21:14:13 10° S 21:20:00 55° ESE 21:25:47 10° NNE
Cosmos 1655 Rocket 4.5 21:15:27 10° NNE 21:21:05 37° E 21:22:36 32° ESE
HJ-1C 3.6 21:22:32 51° ENE 21:22:32 51° ENE 21:25:35 10° N
Cosmos 1805 3.2 21:19:18 10° N 21:23:11 86° W 21:24:58 31° S
BREEZE M DEB (TANK) 3.8 21:23:17 10° N 21:24:45 16° NNE 21:24:45 16° NNE
Cosmos 2056 Rocket 4.3 21:21:20 10° NNE 21:25:51 31° ENE 21:25:51 31° ENE
ARIANE 5 R/B 2.5 21:23:59 10° W 21:26:30 75° S 21:28:25 38° ESE
SJ-6B 3.7 21:27:24 33° NE 21:27:24 33° NE 21:30:08 10° N
Ariane H10 3.3 21:18:08 10° W 21:28:03 46° SSW 21:29:02 38° SSE
SL-16 R/B 3.0 21:23:04 10° NNW 21:28:31 49° WSW 21:33:41 11° S
BLOCK DM-SL R/B 1.7 21:27:13 10° W 21:30:15 50° NW 21:30:15 50° NW
Cosmos 1953 4.1 21:29:23 10° NNE 21:30:56 20° NE 21:30:56 20° NE
Cosmos 1269 Rocket 3.9 21:27:52 10° S 21:33:11 83° ESE 21:38:28 10° NNE
Cosmos 1400 Rocket 3.4 21:31:05 10° SSW 21:35:07 56° W 21:39:06 10° N
SWIFT 4.1 21:34:10 10° NNW 21:37:26 21° NNE 21:37:54 21° NNE
CZ-2D R/B 3.3 21:42:06 71° N 21:42:06 71° N 21:45:34 10° N
Meteor 2-5 Rocket 3.7 21:37:30 20° S 21:41:46 74° E 21:47:41 10° N
In-Cosmos 22 4.3 21:46:07 51° ENE 21:46:07 51° ENE 21:50:44 10° NNE
GPS 2-17 Rocket1 3.9 21:42:51 10° NW 21:47:20 40° NNE 21:47:27 40° NNE
NOSS 3-4 (A) 4.3 21:45:45 10° SSW 21:55:54 23° NE 21:58:02 10° NE
Stardust Del rocket 4.4 21:45:19 10° WSW 21:56:13 69° SSE 21:56:43 66° SE
H-2A R/B (2) 2.5 21:53:25 10° W 21:56:17 41° NNW 21:57:15 35° NNE
Envisat 3.7 22:01:07 41° SW 22:02:23 50° WSW 22:07:17 10° NNW
Cosmos 1603 3.6 21:58:44 10° NNW 22:04:16 84° N 22:04:16 84° N
Ariane H10 3.7 12:18:50 10° W 22:04:41 55° N 22:06:21 42° NE
Ariane H10-3 3.0 22:00:37 10° W 22:06:02 37° SW 22:06:02 37° SW
NATO 3D Rocket 4.4 22:06:33 10° NW 22:10:42 37° N 22:10:42 37° N
Resurs 01 Rocket 4.2 22:28:31 14° N 22:28:31 14° N 22:29:10 10° N
BLOCK DM-SL R/B 3.9 22:21:21 10° W 22:31:32 70° W 22:31:32 70° W
ARIANE 5 R/B 4.2 13:59:47 10° W 22:42:51 75° N 22:45:50 57° ENE
